Weather History for Douglas, WY

Change the Weather History Date:

Sunday, January 13, 2013

  Actual Average Record
Temperature  
Mean Temperature 5 °F 25 °F  
Max Temperature 12 °F 39 °F 54 °F (2004)
Min Temperature -2 °F 11 °F -15 °F (2007)
Degree Days  
Heating Degree Days 60 40  
Month to date heating degree days 563 522  
Since 1 July heating degree days 3284 3611  
Cooling Degree Days 0 0  
Month to date cooling degree days 0 0  
Year to date cooling degree days 0 0  
Moisture  
Dew Point -3 °F    
Average Humidity 74    
Maximum Humidity 87    
Minimum Humidity 61    
Precipitation  
Precipitation T in 0.01 in 0.01 in (2002)
Month to date precipitation T 0.13  
Year to date precipitation T 0.13  
Sea Level Pressure  
Sea Level Pressure 30.30 in    
Wind  
Wind Speed 6 mph (NW)    
Max Wind Speed 14 mph    
Max Gust Speed 18 mph    
Visibility 10 miles    
Events Snow    
T = Trace of Precipitation, MM = Missing Value Source: NWS Daily Summary

Daily Weather History Graph

Daily Weather History Graph

Search for Another Location

Airport:

Trip Planner

Search our weather history database for the weather conditions in past years. The results will help you decide how hot, cold, wet, or windy it might be!

Date:

Astronomy

Jan. 13, 2013 Rise Set
Actual Time 7:30 AM MST 4:50 PM MST
Civil Twilight 6:58 AM MST 5:22 PM MST
Nautical Twilight 6:23 AM MST 5:57 PM MST
Astronomical Twilight 5:49 AM MST 6:31 PM MST
Moon 8:26 AM MST (1/13) 7:37 PM MST (1/13)
Length of Visible Light 10h 23m
Length of Day
9h 20m
Waxing Crescent, 5% of the Moon is Illuminated
Jan 13
Waxing Crescent
Jan 18
First Quarter
Jan 26
Full
Feb 3
Last Quarter
Feb 10
New

Hourly Weather History & Observations

Time (MST) Temp. Windchill Dew Point Humidity Pressure Visibility Wind Dir Wind Speed Gust Speed Precip Events Conditions
12:53 AM 1.0 °F -12.9 °F -4.0 °F 79% 30.27 in 6.0 mi NW 8.1 mph - 0.00 in Snow Light Snow
1:53 AM 1.0 °F -14.0 °F -4.0 °F 79% 30.28 in 8.0 mi NW 9.2 mph - 0.00 in   Overcast
2:53 AM -0.0 °F -14.2 °F -5.1 °F 79% 30.28 in 10.0 mi NW 8.1 mph - N/A   Overcast
3:53 AM -0.0 °F -11.6 °F -5.1 °F 79% 30.27 in 5.0 mi NW 5.8 mph - 0.00 in Snow Light Snow
4:53 AM -0.0 °F -13.0 °F -6.0 °F 76% 30.27 in 10.0 mi NNW 6.9 mph - 0.00 in   Mostly Cloudy
5:53 AM -0.0 °F -14.2 °F -5.1 °F 79% 30.29 in 10.0 mi NW 8.1 mph - N/A   Clear
6:53 AM -0.0 °F -15.3 °F -6.0 °F 76% 30.32 in 10.0 mi NW 9.2 mph - N/A   Partly Cloudy
7:53 AM -0.0 °F -16.3 °F -5.1 °F 79% 30.34 in 10.0 mi NW 10.4 mph - N/A   Overcast
8:53 AM 1.9 °F -7.6 °F -2.9 °F 80% 30.35 in 10.0 mi North 4.6 mph - N/A   Mostly Cloudy
9:53 AM 5.0 °F -11.6 °F -0.9 °F 76% 30.34 in 10.0 mi WNW 12.7 mph - N/A   Overcast
10:53 AM 9.0 °F -5.9 °F -0.0 °F 67% 30.32 in 10.0 mi NW 11.5 mph - N/A   Partly Cloudy
11:32 AM 10.4 °F -4.1 °F -0.4 °F 62% 30.04 in 10.0 mi WNW 11.5 mph - N/A   Mostly Cloudy
11:53 AM 10.9 °F -3.4 °F -0.0 °F 61% 30.29 in 10.0 mi WNW 11.5 mph - N/A   Overcast
12:53 PM 12.0 °F -2.7 °F 1.0 °F 61% 30.27 in 10.0 mi North 12.7 mph - N/A   Overcast
1:53 PM 10.9 °F -0.8 °F 1.0 °F 64% 30.29 in 10.0 mi North 8.1 mph - 0.00 in   Overcast
2:53 PM 10.9 °F -0.8 °F 1.0 °F 64% 30.31 in 10.0 mi North 8.1 mph - N/A   Overcast
3:53 PM 10.0 °F -0.9 °F -0.0 °F 64% 30.33 in 10.0 mi NNW 6.9 mph - N/A   Overcast
4:27 PM 8.6 °F -1.3 °F -0.4 °F 67% 30.06 in 10.0 mi NNW 5.8 mph - N/A   Overcast
4:53 PM 7.0 °F -3.3 °F -0.9 °F 70% 30.34 in 10.0 mi NW 5.8 mph - N/A   Overcast
5:53 PM 3.9 °F - -2.9 °F 73% 30.36 in 10.0 mi Calm Calm - N/A   Overcast
6:53 PM -0.0 °F -9.9 °F -6.0 °F 76% 30.38 in 10.0 mi North 4.6 mph - N/A   Scattered Clouds
7:53 PM 1.0 °F - -4.0 °F 79% 30.38 in 10.0 mi Calm Calm - N/A   Overcast
8:53 PM 1.0 °F - -5.1 °F 75% 30.37 in 10.0 mi Calm Calm - N/A   Overcast
9:53 PM -0.0 °F - -5.1 °F 79% 30.36 in 9.0 mi Calm Calm - N/A   Mostly Cloudy
10:53 PM -0.9 °F - -7.1 °F 75% 30.36 in 10.0 mi Calm Calm - N/A   Overcast
11:53 PM -0.0 °F - -5.1 °F 79% 30.34 in 10.0 mi Calm Calm - N/A   Overcast